19:59
Airports
History
Links
Donate
Help keep this website running!
PayPal
Bitcoin
This page is community maintained. The information is intended for PC simulator navigation or reference.
Always use approved charts for navigation.
51OI
Clays Rv
Clays Rv (51OI)
Canal Fulton, Ohio, United States (44666)
4
Lat/Lng:40° 51' 18.2" N / 81° 35' 56.44" W
40.855056 / -81.599012
Elevation:1035'ft / 315mMSL
ID / ICAO:51OI
Runways:1
Longest:10-28
Grass 789m / 2,587ft
Nearby Weather19:51 GMT 2018-02-19
Nearby weather at KCAK, Akron-canton Rgnl located 9.1 nautical miles from 51OI
Altimeter: 30.08
Visibility: 8.0 statute miles
Wind: 8 knots (from 200°)
Temp: 13°c / 55°f
Humidity: 87.6%

METAR: KCAK 191951Z 20008KT 8SM BKN015 OVC090 13/11 A3008 RMK AO2 RAE24B41E51 SLP191 P0001 T01280111 $

(Powered by phpweather)
Nearby VORs <50NM
Nearby NDBs
Runway 10 / 28
Dimensions:788.6 x 18.3m 2587' x 60'ft
Surface:Grass
Edge Lights:Medium intensity
Runway 10 [A]Runway 28 [B]
Heading:093°TH 273°TH
Lat:
Lng:
40° 51' 19.1"N
81° 36' 13.37"W
40° 51' 17.31"N
81° 35' 39.51"W
User Notes and Comments
40° 51' 18.2" N / 81° 35' 56.44" W
Distance To
Airport ID:
Nearby Airports
(R) Canal Fulton 4.6 NM
7OH2 NE 47°
4 Spring Valley Farm 7.0 NM
OH20 NW 309°
(R) Lockeridge 8.5 NM
OI58 E 96°
(R) Cross 9.1 NM
91OI SE 126°
(C) Akron-canton Rgnl 9.1 NM
KCAK ( WX ) ENE 62°
(R) Stoltzfus Airfield 11.4 NM
OH22 SW 235°
(R) Hilty Field 12.0 NM
OI68 WNW 299°
VFR Chart
Flight Planning at SkyVector.com